ONEWEB-0185, 48220

Orbit data source: Space-Track

ONEWEB-0185, 48220 is a payload satellite owned by One Web (NAA) (UK) in LEO that was launched on Sun, 25 Apr 2021 UTC via a SOYUZ-2-1B launch vehicle from the Vostochny Cosmodrome (VOSTO). Payload-class satellites include a variety of spacecraft equipped with specific instruments for various scientific and technological missions. These include communications satellites like Starlink; space stations such as the ISS; scientific satellites like the Hubble; Earth observation satellites from companies like Planet Labs, Umbra, and HawkEye 360; GPS; miniature CubeSats for education and research; and military/defense satellites.

Loading next visibility...
Identifier
48220, 2021-031L
Orbit
LEO
Country
Flag of UKUK
Related business
Manufacturer
One Web
Mission
Operational Commercial Communications
Bus & Motor
ARROW, Unknown motor
Mass
148 kg wet, ~140 kg dry
Launch date (UTC)
2021-04-25 (5 years ago)
Launch vehicle
SOYUZ-2-1B
Launch site
Vostochny Cosmodrome (VOSTO)
Object type
Payload
Rocket body
Debris
Shape & HBR
Trap Box + 2 Pan, 6.7 m
Radar Cross Section
3.464 m², Large (>1 m²)

Expand to show TLE details & history
Last TLE update: 10 hours ago

TLE from 10 hours ago
0 ONEWEB-0185
1 48220U 21031L   25306.46296867  .00000246  00000-0  62899-3 0  9996
2 48220  87.9010 334.8559 0001822  81.3759 278.7577 13.14502038218467
Epoch: 2025-11-02T11:06Z
TLE epoch observation values (Epoch: 2025-11-02T11:06:40.493Z)
Latitude
-0.00001°
Longitude
126.20884°
Altitude
1,208.477 km
Speed
7.25 km/s
True Right ascension
22h 19m 25s
True Declination
0° 00' 00"
Sunlit
Object was in daylight at epoch
Visualization orbit readout
Latitude
Unknown
Longitude
Unknown
Altitude
Unknown
Speed
Unknown
Apparent Right ascension
Unknown
Apparent Declination
Unknown
Sunlit
N/A
Visualization observer readout
Local Sidereal Time
16:52:21
Azimuth
Unknown
Elevation
Unknown
Doppler factor
Unknown
Orbital elements
Apogee altitude
1,204.288 km
Perigee altitude
1,201.526 km
Semi-major axis
7,581.044 km
Eccentricity
0.00018
Inclination
87.901°
RAAN
334.8559°
Arg. of periapsis
81.3759°
True anomaly
278.73706°
Mean anomaly
278.7577°
Eccentric anomaly
278.74738°
Mean motion
3.28814 °/min
Orbital period
109.48 mins
BSTAR
0.00062899
Loading maneuver chart data...
Computing Atmospheric mass density...
Loading historical data...
Loading historical data...
Loading historical data...
Loading historical data...
Loading historical data...
Loading historical data...
Loading historical data...

Documentation

Showing up to 5 results
|